Regional Weather Roundup
Issued by NWS

Home | Current Version | Previous Version | Graphics & Text | Print | Product List | Glossary On
Versions: 1 2 3 4 5 6 7 8 9 10 11 12 13 14 15 16 17 18 19 20 21 22 23 24 25 26 27 28 29 30 31 32 33 34 35 36 37 38 39 40 41 42 43 44 45 46 47 48 49 50
000
ASUS43 KLSX 182257
RWRMO

WEATHER SUMMARY FOR MISSOURI
NATIONAL WEATHER SERVICE SPRINGFIELD MO
600 PM CDT MON SEP 18 2017

NOTE: "FAIR" INDICATES FEW OR NO CLOUDS BELOW 12,000 FEET WITH NO
       SIGNIFICANT WEATHER AND/OR OBSTRUCTIONS TO VISIBILITY.
       CURRENT SKY AND/OR WEATHER CONDITIONS ARE NOT AVAILABLE FOR
       CHILLICOTHE AND FARMINGTON.

MOZ001>031-035>038-043-044-053-054-190000-
...NORTHERN AND WESTERN MISSOURI...

CITY           SKY/WX    TMP DP  RH WIND       PRES   REMARKS
KANSAS CTY INT PTSUNNY   74  67  78 S8        29.93S
LEE`S SUMMIT   MOSUNNY   72  67  84 SW3       29.94S
ST JOSEPH      MOSUNNY   76  68  76 S9        29.90F
CHILLICOTHE      N/A     73  69  87 CALM      29.95S

$$
MOZ066>068-077>081-088>096-101>105-190000-
...SOUTHWEST MISSOURI...

CITY           SKY/WX    TMP DP  RH WIND       PRES   REMARKS
SPRINGFIELD    CLOUDY    79  66  64 S6        29.95F
BRANSON        PTSUNNY   75  68  78 SE9       29.98S

$$
MOZ032>034-039>042-045>050-055>058-069>072-190000-
...CENTRAL MISSOURI...

CITY           SKY/WX    TMP DP  RH WIND       PRES   REMARKS
COLUMBIA       NOT AVBL
JEFFERSON CITY LGT RAIN  70  67  90 E5        29.96S
ROLLA          LGT RAIN  72  68  87 CALM      29.98R
SEDALIA        MOSUNNY   72  71  97 E5        29.95R
WARRENSBURG    PTSUNNY   72  66  83 CALM      29.94R

$$
MOZ051-052-059>065-190000-
...EAST CENTRAL MISSOURI...

CITY           SKY/WX    TMP DP  RH WIND       PRES   REMARKS
ST LOUIS INTL  CLOUDY    81  68  64 S7        29.95S

$$
MOZ072>076-082>087-097>100-106>115-190000-
...SOUTH CENTRAL AND SOUTHEAST MISSOURI...

CITY           SKY/WX    TMP DP  RH WIND       PRES   REMARKS
CAPE GIRARDEAU CLOUDY    82  70  66 SE6       29.93F
POPLAR BLUFF   CLOUDY    84  68  58 NW3       29.94R
WEST PLAINS    CLOUDY    77  69  76 CALM      29.99S

$$



USA.gov is the U.S. government's official web portal to all federal, state and local government web resources and services.